Time,TemperatureF,DewpointF,PressureIn,WindDirection,WindDirectionDegrees,WindSpeedMPH,WindSpeedGustMPH,Humidity,HourlyPrecipIn,Conditions,Clouds,dailyrainin,SoftwareType,DateUTC
2013-08-18 00:00:00,64.5,55.2,30.19,South,186,0.0,0.0,72,-99.99,,,0.00,1-wire,2013-08-18 05:00:00,
2013-08-18 00:14:00,64.1,55.0,30.19,South,169,0.0,0.0,72,-99.99,,,0.00,1-wire,2013-08-18 05:14:00,
2013-08-18 00:19:00,63.7,54.9,30.19,South,169,0.0,0.0,73,-99.99,,,0.00,1-wire,2013-08-18 05:19:00,
2013-08-18 00:24:00,63.6,54.8,30.19,South,172,0.0,0.0,73,-99.99,,,0.00,1-wire,2013-08-18 05:24:00,
2013-08-18 00:29:00,63.5,54.7,30.19,South,172,0.0,0.0,73,-99.99,,,0.00,1-wire,2013-08-18 05:29:00,
2013-08-18 00:34:00,63.4,54.7,30.19,South,172,0.0,0.0,73,-99.99,,,0.00,1-wire,2013-08-18 05:34:00,
2013-08-18 00:39:00,63.2,54.6,30.19,South,180,0.0,0.0,74,-99.99,,,0.00,1-wire,2013-08-18 05:39:00,
2013-08-18 00:44:00,63.0,54.5,30.19,South,180,0.0,0.0,74,-99.99,,,0.00,1-wire,2013-08-18 05:44:00,
2013-08-18 00:49:00,62.9,54.5,30.19,South,180,0.0,0.0,74,-99.99,,,0.00,1-wire,2013-08-18 05:49:00,
2013-08-18 00:54:00,62.6,54.2,30.19,SSE,168,0.0,0.0,74,-99.99,,,0.00,1-wire,2013-08-18 05:54:00,
2013-08-18 00:59:00,62.7,54.3,30.19,SSE,168,0.0,0.0,74,-99.99,,,0.00,1-wire,2013-08-18 05:59:00,
2013-08-18 01:04:00,62.6,54.6,30.19,SSE,168,0.0,0.0,75,-99.99,,,0.00,1-wire,2013-08-18 06:04:00,
2013-08-18 01:09:00,62.6,54.5,30.19,North,358,0.0,0.0,75,-99.99,,,0.00,1-wire,2013-08-18 06:09:00,
2013-08-18 01:14:00,62.4,54.5,30.19,North,358,0.0,0.0,75,-99.99,,,0.00,1-wire,2013-08-18 06:14:00,
2013-08-18 01:19:00,62.2,54.4,30.19,North,358,0.0,0.0,76,-99.99,,,0.00,1-wire,2013-08-18 06:19:00,
2013-08-18 01:24:00,62.2,54.2,30.19,North,358,0.0,0.0,75,-99.99,,,0.00,1-wire,2013-08-18 06:24:00,
2013-08-18 01:29:00,62.0,54.4,30.19,North,358,0.0,0.0,76,-99.99,,,0.00,1-wire,2013-08-18 06:29:00,
2013-08-18 01:34:00,62.0,54.5,30.19,North,358,0.0,0.0,76,-99.99,,,0.00,1-wire,2013-08-18 06:34:00,
2013-08-18 01:39:00,61.6,53.8,30.19,North,1,0.0,0.0,76,-99.99,,,0.00,1-wire,2013-08-18 06:39:00,
2013-08-18 01:44:00,61.6,53.7,30.19,North,1,0.0,0.0,75,-99.99,,,0.00,1-wire,2013-08-18 06:44:00,
2013-08-18 01:49:00,61.7,53.6,30.19,North,1,0.0,0.0,75,-99.99,,,0.00,1-wire,2013-08-18 06:49:00,
2013-08-18 01:55:00,61.7,53.7,30.19,North,356,0.0,0.0,75,-99.99,,,0.00,1-wire,2013-08-18 06:55:00,
2013-08-18 02:01:00,61.5,53.3,30.19,North,356,0.0,0.0,75,-99.99,,,0.00,1-wire,2013-08-18 07:01:00,
2013-08-18 02:07:00,61.4,53.2,30.19,North,353,0.0,0.0,74,-99.99,,,0.00,1-wire,2013-08-18 07:07:00,
2013-08-18 02:13:00,61.7,53.9,30.19,North,353,0.0,0.0,76,-99.99,,,0.00,1-wire,2013-08-18 07:13:00,
2013-08-18 02:19:00,61.5,53.5,30.19,North,353,0.0,0.0,75,-99.99,,,0.00,1-wire,2013-08-18 07:19:00,
2013-08-18 02:25:00,61.3,53.6,30.19,North,350,0.0,0.0,76,-99.99,,,0.00,1-wire,2013-08-18 07:25:00,
2013-08-18 02:31:00,61.3,53.8,30.19,North,350,0.0,0.0,76,-99.99,,,0.00,1-wire,2013-08-18 07:31:00,
2013-08-18 02:37:00,61.1,53.6,30.18,North,354,0.0,0.0,76,-99.99,,,0.00,1-wire,2013-08-18 07:37:00,
2013-08-18 02:43:00,60.7,53.3,30.19,North,354,0.0,0.0,77,-99.99,,,0.00,1-wire,2013-08-18 07:43:00,
2013-08-18 02:49:00,60.5,53.1,30.18,North,354,0.0,0.0,77,-99.99,,,0.00,1-wire,2013-08-18 07:49:00,
2013-08-18 02:55:00,60.7,53.4,30.18,NNW,348,0.0,0.0,77,-99.99,,,0.00,1-wire,2013-08-18 07:55:00,
2013-08-18 03:01:00,60.7,53.8,30.19,NNW,348,0.0,0.0,78,-99.99,,,0.00,1-wire,2013-08-18 08:01:00,
2013-08-18 03:07:00,60.6,53.6,30.18,NNW,348,0.0,0.0,78,-99.99,,,0.00,1-wire,2013-08-18 08:07:00,
2013-08-18 03:13:00,60.3,53.4,30.19,NNW,348,0.0,0.0,78,-99.99,,,0.00,1-wire,2013-08-18 08:13:00,
2013-08-18 03:19:00,60.4,53.4,30.19,NNW,348,0.0,0.0,78,-99.99,,,0.00,1-wire,2013-08-18 08:19:00,
2013-08-18 03:25:00,60.3,53.5,30.19,NNW,345,0.0,0.0,78,-99.99,,,0.00,1-wire,2013-08-18 08:25:00,
2013-08-18 03:30:00,60.4,53.6,30.19,NNW,345,0.0,0.0,78,-99.99,,,0.00,1-wire,2013-08-18 08:30:00,
2013-08-18 03:35:00,60.2,53.4,30.18,NNW,345,0.0,0.0,78,-99.99,,,0.00,1-wire,2013-08-18 08:35:00,
2013-08-18 03:40:00,60.0,53.4,30.18,North,354,0.0,0.0,79,-99.99,,,0.00,1-wire,2013-08-18 08:40:00,
2013-08-18 03:45:00,60.1,53.6,30.19,North,354,0.0,0.0,79,-99.99,,,0.00,1-wire,2013-08-18 08:45:00,
2013-08-18 03:50:00,60.2,53.7,30.19,North,354,0.0,0.0,79,-99.99,,,0.00,1-wire,2013-08-18 08:50:00,
2013-08-18 03:55:00,60.1,53.7,30.19,NNW,346,0.0,0.0,80,-99.99,,,0.00,1-wire,2013-08-18 08:55:00,
2013-08-18 04:00:00,59.9,53.6,30.20,NNW,346,0.0,0.0,80,-99.99,,,0.00,1-wire,2013-08-18 09:00:00,
2013-08-18 04:05:00,59.9,53.6,30.19,NNW,346,0.0,0.0,80,-99.99,,,0.00,1-wire,2013-08-18 09:05:00,
2013-08-18 04:10:00,59.8,53.5,30.19,North,360,0.0,0.0,80,-99.99,,,0.00,1-wire,2013-08-18 09:10:00,
2013-08-18 04:15:00,59.8,53.7,30.19,North,360,0.0,0.0,80,-99.99,,,0.00,1-wire,2013-08-18 09:15:00,
2013-08-18 04:20:00,59.6,53.6,30.19,North,360,0.0,0.0,80,-99.99,,,0.00,1-wire,2013-08-18 09:20:00,
2013-08-18 04:25:00,59.6,53.4,30.20,North,356,0.0,0.0,80,-99.99,,,0.00,1-wire,2013-08-18 09:25:00,
2013-08-18 04:30:00,59.4,53.4,30.20,North,356,0.0,0.0,80,-99.99,,,0.00,1-wire,2013-08-18 09:30:00,
2013-08-18 04:35:00,59.2,53.1,30.20,North,356,0.0,0.0,80,-99.99,,,0.00,1-wire,2013-08-18 09:35:00,
2013-08-18 04:40:00,58.9,52.9,30.20,NNE,21,0.0,0.0,80,-99.99,,,0.00,1-wire,2013-08-18 09:40:00,
2013-08-18 04:45:00,58.8,52.8,30.20,NNE,21,0.0,0.0,80,-99.99,,,0.00,1-wire,2013-08-18 09:45:00,
2013-08-18 04:50:00,58.8,52.9,30.20,NNE,21,0.0,0.0,81,-99.99,,,0.00,1-wire,2013-08-18 09:50:00,
2013-08-18 04:55:00,58.7,52.8,30.20,North,11,0.0,0.0,81,-99.99,,,0.00,1-wire,2013-08-18 09:55:00,
2013-08-18 05:00:00,58.8,53.0,30.20,North,11,0.0,0.0,81,-99.99,,,0.00,1-wire,2013-08-18 10:00:00,
2013-08-18 05:05:00,58.5,52.7,30.20,North,11,0.0,0.0,81,-99.99,,,0.00,1-wire,2013-08-18 10:05:00,
2013-08-18 05:10:00,58.4,52.7,30.20,North,4,0.0,0.0,81,-99.99,,,0.00,1-wire,2013-08-18 10:10:00,
2013-08-18 05:15:00,58.3,52.7,30.20,North,4,0.0,0.0,82,-99.99,,,0.00,1-wire,2013-08-18 10:15:00,
2013-08-18 05:20:00,58.1,52.6,30.20,North,4,0.0,0.0,82,-99.99,,,0.00,1-wire,2013-08-18 10:20:00,
2013-08-18 05:25:00,57.8,52.4,30.20,North,11,0.0,0.0,82,-99.99,,,0.00,1-wire,2013-08-18 10:25:00,
2013-08-18 05:30:00,57.6,52.3,30.20,North,11,0.0,0.0,82,-99.99,,,0.00,1-wire,2013-08-18 10:30:00,
2013-08-18 05:35:00,57.4,52.2,30.20,North,11,0.0,0.0,83,-99.99,,,0.00,1-wire,2013-08-18 10:35:00,
2013-08-18 05:40:00,57.4,52.3,30.20,NNE,13,0.0,0.0,83,-99.99,,,0.00,1-wire,2013-08-18 10:40:00,
2013-08-18 05:45:00,57.5,52.5,30.20,NNE,13,0.0,0.0,83,-99.99,,,0.00,1-wire,2013-08-18 10:45:00,
2013-08-18 05:50:00,57.4,52.4,30.21,NNE,13,0.0,0.0,83,-99.99,,,0.00,1-wire,2013-08-18 10:50:00,
2013-08-18 05:55:00,57.3,52.4,30.21,NNE,27,0.0,0.0,84,-99.99,,,0.00,1-wire,2013-08-18 10:55:00,
2013-08-18 06:00:00,57.4,52.5,30.21,NNE,27,0.0,0.0,84,-99.99,,,0.00,1-wire,2013-08-18 11:00:00,
2013-08-18 06:05:00,57.3,52.4,30.21,NNE,27,0.0,0.0,84,-99.99,,,0.00,1-wire,2013-08-18 11:05:00,
2013-08-18 06:11:00,57.1,52.3,30.21,NNE,27,0.0,0.0,84,-99.99,,,0.00,1-wire,2013-08-18 11:11:00,
2013-08-18 06:17:00,57.2,52.5,30.22,NNE,27,0.0,0.0,84,-99.99,,,0.00,1-wire,2013-08-18 11:17:00,
2013-08-18 06:23:00,57.1,52.5,30.22,North,8,0.0,0.0,84,-99.99,,,0.00,1-wire,2013-08-18 11:23:00,
2013-08-18 06:29:00,57.0,52.4,30.22,North,8,0.0,0.0,84,-99.99,,,0.00,1-wire,2013-08-18 11:29:00,
2013-08-18 06:34:00,56.8,52.2,30.22,North,8,0.0,0.0,84,-99.99,,,0.00,1-wire,2013-08-18 11:34:00,
2013-08-18 06:39:00,56.8,52.2,30.22,NNE,22,0.0,0.0,84,-99.99,,,0.00,1-wire,2013-08-18 11:39:00,
2013-08-18 06:44:00,56.9,52.3,30.22,NNE,22,0.0,0.0,85,-99.99,,,0.00,1-wire,2013-08-18 11:44:00,
2013-08-18 06:49:00,56.9,52.3,30.22,NNE,22,0.0,0.0,85,-99.99,,,0.00,1-wire,2013-08-18 11:49:00,
2013-08-18 06:55:00,57.0,52.6,30.22,NNE,19,0.0,0.0,85,-99.99,,,0.00,1-wire,2013-08-18 11:55:00,
2013-08-18 07:01:00,57.0,52.5,30.22,NNE,19,0.0,0.0,85,-99.99,,,0.00,1-wire,2013-08-18 12:01:00,
2013-08-18 07:07:00,57.2,52.8,30.22,North,4,0.0,0.0,85,-99.99,,,0.00,1-wire,2013-08-18 12:07:00,
2013-08-18 07:13:00,57.5,53.2,30.23,North,4,0.0,0.0,85,-99.99,,,0.00,1-wire,2013-08-18 12:13:00,
2013-08-18 07:18:00,57.8,53.4,30.23,North,4,0.0,0.0,85,-99.99,,,0.00,1-wire,2013-08-18 12:18:00,
2013-08-18 07:23:00,57.8,53.6,30.23,NNE,23,0.0,0.0,86,-99.99,,,0.00,1-wire,2013-08-18 12:23:00,
2013-08-18 07:28:00,58.1,54.1,30.23,NNE,23,0.0,0.0,87,-99.99,,,0.00,1-wire,2013-08-18 12:28:00,
2013-08-18 07:33:00,58.5,54.5,30.23,NNE,23,0.0,0.0,86,-99.99,,,0.00,1-wire,2013-08-18 12:33:00,
2013-08-18 07:38:00,58.8,54.6,30.23,North,3,0.0,0.0,86,-99.99,,,0.00,1-wire,2013-08-18 12:38:00,
2013-08-18 07:44:00,59.3,55.1,30.23,North,3,0.0,0.0,86,-99.99,,,0.00,1-wire,2013-08-18 12:44:00,
2013-08-18 07:50:00,59.8,55.4,30.23,North,3,0.0,0.0,85,-99.99,,,0.00,1-wire,2013-08-18 12:50:00,
2013-08-18 07:56:00,60.1,55.5,30.23,NNE,20,0.0,0.0,85,-99.99,,,0.00,1-wire,2013-08-18 12:56:00,
2013-08-18 08:02:00,60.7,56.1,30.23,NNE,20,0.0,0.0,85,-99.99,,,0.00,1-wire,2013-08-18 13:02:00,
2013-08-18 08:07:00,61.2,56.3,30.23,North,360,0.0,0.0,84,-99.99,,,0.00,1-wire,2013-08-18 13:07:00,
2013-08-18 08:12:00,62.1,56.1,30.23,North,360,0.0,0.0,81,-99.99,,,0.00,1-wire,2013-08-18 13:12:00,
2013-08-18 08:17:00,62.7,56.6,30.23,North,360,0.0,0.0,80,-99.99,,,0.00,1-wire,2013-08-18 13:17:00,
2013-08-18 08:22:00,63.4,57.0,30.22,NNE,20,0.0,0.0,80,-99.99,,,0.00,1-wire,2013-08-18 13:22:00,
2013-08-18 08:27:00,64.4,56.6,30.23,NNE,20,0.0,0.0,76,-99.99,,,0.00,1-wire,2013-08-18 13:27:00,
2013-08-18 08:33:00,65.5,57.4,30.22,NNE,20,0.0,0.0,75,-99.99,,,0.00,1-wire,2013-08-18 13:33:00,
2013-08-18 08:39:00,66.5,57.7,30.22,NNE,17,0.0,0.0,73,-99.99,,,0.00,1-wire,2013-08-18 13:39:00,
2013-08-18 08:44:00,67.0,56.6,30.22,NNE,17,0.0,3.0,69,-99.99,,,0.00,1-wire,2013-08-18 13:44:00,
2013-08-18 08:49:00,67.7,57.4,30.22,NNE,17,0.0,0.0,69,-99.99,,,0.00,1-wire,2013-08-18 13:49:00,
2013-08-18 08:54:00,68.3,56.6,30.22,NNE,27,1.0,3.0,66,-99.99,,,0.00,1-wire,2013-08-18 13:54:00,
2013-08-18 08:59:00,68.9,57.5,30.22,NNE,27,0.0,0.0,67,-99.99,,,0.00,1-wire,2013-08-18 13:59:00,
2013-08-18 09:04:00,69.2,57.2,30.22,NNE,27,1.0,5.0,66,-99.99,,,0.00,1-wire,2013-08-18 14:04:00,
2013-08-18 09:09:00,69.4,57.1,30.22,NNE,14,0.0,0.0,65,-99.99,,,0.00,1-wire,2013-08-18 14:09:00,
2013-08-18 09:14:00,69.7,57.2,30.22,NNE,14,0.0,0.0,65,-99.99,,,0.00,1-wire,2013-08-18 14:14:00,
2013-08-18 09:19:00,69.9,57.3,30.22,NNE,14,0.0,3.0,64,-99.99,,,0.00,1-wire,2013-08-18 14:19:00,
2013-08-18 09:24:00,70.4,57.5,30.22,SSE,150,1.0,3.0,64,-99.99,,,0.00,1-wire,2013-08-18 14:24:00,
2013-08-18 09:29:00,70.5,57.4,30.22,SSE,150,0.0,3.0,63,-99.99,,,0.00,1-wire,2013-08-18 14:29:00,
2013-08-18 09:34:00,71.5,58.5,30.22,SSE,150,2.0,3.0,64,-99.99,,,0.00,1-wire,2013-08-18 14:34:00,
2013-08-18 09:39:00,72.0,58.8,30.22,SE,140,0.0,3.0,63,-99.99,,,0.00,1-wire,2013-08-18 14:39:00,
2013-08-18 09:44:00,72.1,58.0,30.22,SE,140,2.0,3.0,61,-99.99,,,0.00,1-wire,2013-08-18 14:44:00,
2013-08-18 09:49:00,72.5,58.4,30.22,SE,140,1.0,3.0,61,-99.99,,,0.00,1-wire,2013-08-18 14:49:00,
2013-08-18 09:54:00,72.5,58.0,30.22,South,178,0.0,0.0,60,-99.99,,,0.00,1-wire,2013-08-18 14:54:00,
2013-08-18 09:59:00,73.6,60.1,30.22,South,178,0.0,3.0,63,-99.99,,,0.00,1-wire,2013-08-18 14:59:00,
2013-08-18 10:04:00,73.6,58.6,30.21,South,178,1.0,3.0,59,-99.99,,,0.00,1-wire,2013-08-18 15:04:00,
2013-08-18 10:09:00,74.1,59.4,30.22,ESE,106,2.0,3.0,60,-99.99,,,0.00,1-wire,2013-08-18 15:09:00,
2013-08-18 10:14:00,74.3,59.4,30.22,ESE,106,1.0,3.0,60,-99.99,,,0.00,1-wire,2013-08-18 15:14:00,
2013-08-18 10:19:00,75.0,59.7,30.22,ESE,106,3.0,6.0,59,-99.99,,,0.00,1-wire,2013-08-18 15:19:00,
2013-08-18 10:24:00,75.6,60.4,30.21,ESE,123,1.0,3.0,59,-99.99,,,0.00,1-wire,2013-08-18 15:24:00,
2013-08-18 10:29:00,76.6,61.2,30.20,ESE,123,0.0,3.0,59,-99.99,,,0.00,1-wire,2013-08-18 15:29:00,
2013-08-18 10:34:00,76.6,61.1,30.21,ESE,123,0.0,3.0,59,-99.99,,,0.00,1-wire,2013-08-18 15:34:00,
2013-08-18 10:39:00,76.7,60.5,30.20,ESE,121,2.0,5.0,57,-99.99,,,0.00,1-wire,2013-08-18 15:39:00,
2013-08-18 10:44:00,76.8,60.0,30.20,ESE,121,0.0,3.0,56,-99.99,,,0.00,1-wire,2013-08-18 15:44:00,
2013-08-18 10:49:00,77.0,60.4,30.20,ESE,121,2.0,6.0,57,-99.99,,,0.00,1-wire,2013-08-18 15:49:00,
2013-08-18 10:54:00,76.8,59.2,30.20,SE,137,0.0,3.0,55,-99.99,,,0.00,1-wire,2013-08-18 15:54:00,
2013-08-18 10:59:00,77.3,59.8,30.20,SE,137,1.0,3.0,55,-99.99,,,0.00,1-wire,2013-08-18 15:59:00,
2013-08-18 11:04:00,77.8,59.3,30.20,SE,137,1.0,3.0,53,-99.99,,,0.00,1-wire,2013-08-18 16:04:00,
2013-08-18 11:09:00,78.0,59.3,30.20,SE,125,1.0,6.0,53,-99.99,,,0.00,1-wire,2013-08-18 16:09:00,
2013-08-18 11:14:00,77.5,55.9,30.20,SE,125,0.0,3.0,47,-99.99,,,0.00,1-wire,2013-08-18 16:14:00,
2013-08-18 11:19:00,78.0,57.4,30.20,SE,125,0.0,3.0,49,-99.99,,,0.00,1-wire,2013-08-18 16:19:00,
2013-08-18 11:24:00,78.0,57.6,30.20,SSW,193,3.0,6.0,50,-99.99,,,0.00,1-wire,2013-08-18 16:24:00,
2013-08-18 11:29:00,78.2,57.7,30.20,SSW,193,0.0,3.0,49,-99.99,,,0.00,1-wire,2013-08-18 16:29:00,
2013-08-18 11:35:00,78.7,56.1,30.20,SSW,193,1.0,6.0,46,-99.99,,,0.00,1-wire,2013-08-18 16:35:00,
2013-08-18 11:40:00,78.9,57.0,30.20,SSW,192,1.0,3.0,47,-99.99,,,0.00,1-wire,2013-08-18 16:40:00,
2013-08-18 11:45:00,79.5,58.4,30.20,SSW,192,0.0,3.0,49,-99.99,,,0.00,1-wire,2013-08-18 16:45:00,
2013-08-18 11:50:00,79.2,57.3,30.20,SSW,192,2.0,6.0,47,-99.99,,,0.00,1-wire,2013-08-18 16:50:00,
2013-08-18 11:56:00,79.4,58.0,30.20,South,178,1.0,3.0,48,-99.99,,,0.00,1-wire,2013-08-18 16:56:00,
2013-08-18 12:02:00,79.7,58.5,30.19,South,178,0.0,0.0,48,-99.99,,,0.00,1-wire,2013-08-18 17:02:00,
2013-08-18 12:07:00,80.2,57.5,30.19,SE,133,0.0,3.0,46,-99.99,,,0.00,1-wire,2013-08-18 17:07:00,
2013-08-18 12:12:00,79.8,57.7,30.19,SE,133,1.0,3.0,47,-99.99,,,0.00,1-wire,2013-08-18 17:12:00,
2013-08-18 12:17:00,79.4,57.3,30.19,SE,133,1.0,6.0,47,-99.99,,,0.00,1-wire,2013-08-18 17:17:00,
2013-08-18 12:22:00,79.1,56.9,30.19,SSE,150,0.0,0.0,47,-99.99,,,0.00,1-wire,2013-08-18 17:22:00,
2013-08-18 12:28:00,79.0,58.1,30.19,SSE,150,1.0,3.0,49,-99.99,,,0.00,1-wire,2013-08-18 17:28:00,
2013-08-18 12:34:00,79.9,57.2,30.19,SSE,150,1.0,3.0,46,-99.99,,,0.00,1-wire,2013-08-18 17:34:00,
2013-08-18 12:39:00,80.2,56.7,30.19,SE,127,1.0,3.0,45,-99.99,,,0.00,1-wire,2013-08-18 17:39:00,
2013-08-18 12:44:00,80.2,55.6,30.18,SE,127,2.0,3.0,43,-99.99,,,0.00,1-wire,2013-08-18 17:44:00,
2013-08-18 12:49:00,80.7,57.8,30.18,SE,127,1.0,3.0,46,-99.99,,,0.00,1-wire,2013-08-18 17:49:00,
2013-08-18 12:54:00,81.2,55.4,30.18,ESE,122,4.0,9.0,41,-99.99,,,0.00,1-wire,2013-08-18 17:54:00,
2013-08-18 13:00:00,80.3,53.4,30.18,ESE,122,4.0,6.0,40,-99.99,,,0.00,1-wire,2013-08-18 18:00:00,
2013-08-18 13:05:00,81.0,54.1,30.18,ESE,122,1.0,3.0,40,-99.99,,,0.00,1-wire,2013-08-18 18:05:00,
2013-08-18 13:10:00,80.9,52.2,30.18,ENE,71,1.0,3.0,37,-99.99,,,0.00,1-wire,2013-08-18 18:10:00,
2013-08-18 13:15:00,81.1,53.2,30.18,ENE,71,3.0,6.0,38,-99.99,,,0.00,1-wire,2013-08-18 18:15:00,
2013-08-18 13:21:00,80.7,54.1,30.18,SE,137,1.0,5.0,40,-99.99,,,0.00,1-wire,2013-08-18 18:21:00,
2013-08-18 13:27:00,80.9,53.0,30.18,SE,137,1.0,3.0,38,-99.99,,,0.00,1-wire,2013-08-18 18:27:00,
2013-08-18 13:33:00,80.5,50.4,30.18,SE,137,4.0,9.0,35,-99.99,,,0.00,1-wire,2013-08-18 18:33:00,
2013-08-18 13:38:00,81.0,54.1,30.18,South,169,0.0,0.0,40,-99.99,,,0.00,1-wire,2013-08-18 18:38:00,
2013-08-18 13:43:00,81.2,53.5,30.18,South,169,2.0,6.0,38,-99.99,,,0.00,1-wire,2013-08-18 18:43:00,
2013-08-18 13:48:00,81.1,52.1,30.17,South,169,2.0,6.0,37,-99.99,,,0.00,1-wire,2013-08-18 18:48:00,
2013-08-18 13:54:00,81.0,53.6,30.17,SE,142,1.0,3.0,39,-99.99,,,0.00,1-wire,2013-08-18 18:54:00,
2013-08-18 14:00:00,81.2,53.0,30.17,SE,142,1.0,3.0,38,-99.99,,,0.00,1-wire,2013-08-18 19:00:00,
2013-08-18 14:05:00,81.1,54.5,30.16,SE,142,0.0,0.0,40,-99.99,,,0.00,1-wire,2013-08-18 19:05:00,
2013-08-18 14:10:00,81.1,55.0,30.16,SSE,159,3.0,6.0,41,-99.99,,,0.00,1-wire,2013-08-18 19:10:00,
2013-08-18 14:15:00,81.2,56.0,30.16,SSE,159,1.0,3.0,42,-99.99,,,0.00,1-wire,2013-08-18 19:15:00,
2013-08-18 14:20:00,80.9,52.9,30.16,SSE,159,4.0,8.0,38,-99.99,,,0.00,1-wire,2013-08-18 19:20:00,
2013-08-18 14:25:00,80.7,53.3,30.16,East,81,1.0,3.0,39,-99.99,,,0.00,1-wire,2013-08-18 19:25:00,
2013-08-18 14:30:00,80.5,53.3,30.16,East,81,2.0,9.0,39,-99.99,,,0.00,1-wire,2013-08-18 19:30:00,
2013-08-18 14:35:00,80.4,53.6,30.16,East,81,0.0,3.0,40,-99.99,,,0.00,1-wire,2013-08-18 19:35:00,
2013-08-18 14:40:00,80.8,54.8,30.15,East,90,0.0,0.0,41,-99.99,,,0.00,1-wire,2013-08-18 19:40:00,
2013-08-18 14:45:00,80.4,53.9,30.15,East,90,0.0,3.0,40,-99.99,,,0.00,1-wire,2013-08-18 19:45:00,
2013-08-18 14:50:00,79.7,52.2,30.15,East,90,1.0,3.0,39,-99.99,,,0.00,1-wire,2013-08-18 19:50:00,
2013-08-18 14:55:00,79.8,53.6,30.15,East,97,1.0,3.0,40,-99.99,,,0.00,1-wire,2013-08-18 19:55:00,
2013-08-18 15:00:00,80.1,55.7,30.14,East,97,1.0,3.0,43,-99.99,,,0.00,1-wire,2013-08-18 20:00:00,
2013-08-18 15:05:00,79.5,53.8,30.14,East,97,1.0,6.0,41,-99.99,,,0.00,1-wire,2013-08-18 20:05:00,
2013-08-18 15:10:00,79.7,55.5,30.14,SSW,197,1.0,3.0,43,-99.99,,,0.00,1-wire,2013-08-18 20:10:00,
2013-08-18 15:15:00,79.9,56.2,30.14,SSW,197,2.0,6.0,44,-99.99,,,0.00,1-wire,2013-08-18 20:15:00,
2013-08-18 15:20:00,79.8,55.2,30.14,SSW,197,2.0,6.0,43,-99.99,,,0.00,1-wire,2013-08-18 20:20:00,
2013-08-18 15:25:00,79.8,53.4,30.14,South,190,1.0,3.0,40,-99.99,,,0.00,1-wire,2013-08-18 20:25:00,
2013-08-18 15:30:00,79.7,54.9,30.13,South,190,2.0,6.0,43,-99.99,,,0.00,1-wire,2013-08-18 20:30:00,
2013-08-18 15:35:00,79.9,56.4,30.14,South,190,1.0,6.0,45,-99.99,,,0.00,1-wire,2013-08-18 20:35:00,
2013-08-18 15:40:00,80.1,55.6,30.14,SSW,205,1.0,6.0,43,-99.99,,,0.00,1-wire,2013-08-18 20:40:00,
2013-08-18 15:45:00,79.8,54.9,30.14,SSW,205,2.0,6.0,42,-99.99,,,0.00,1-wire,2013-08-18 20:45:00,
2013-08-18 15:50:00,79.6,55.1,30.14,SSW,205,1.0,3.0,43,-99.99,,,0.00,1-wire,2013-08-18 20:50:00,
2013-08-18 15:55:00,79.7,55.6,30.14,SSW,196,0.0,3.0,44,-99.99,,,0.00,1-wire,2013-08-18 20:55:00,
2013-08-18 16:00:00,79.8,55.5,30.14,SSW,196,2.0,5.0,43,-99.99,,,0.00,1-wire,2013-08-18 21:00:00,
2013-08-18 16:05:00,79.5,54.8,30.13,SSW,196,1.0,3.0,43,-99.99,,,0.00,1-wire,2013-08-18 21:05:00,
2013-08-18 16:10:00,79.9,56.7,30.13,SSW,206,0.0,3.0,45,-99.99,,,0.00,1-wire,2013-08-18 21:10:00,
2013-08-18 16:15:00,79.7,54.4,30.13,SSW,206,3.0,9.0,42,-99.99,,,0.00,1-wire,2013-08-18 21:15:00,
2013-08-18 16:20:00,79.5,54.5,30.13,SSW,206,1.0,3.0,42,-99.99,,,0.00,1-wire,2013-08-18 21:20:00,
2013-08-18 16:25:00,79.8,54.9,30.13,SSW,207,1.0,3.0,42,-99.99,,,0.00,1-wire,2013-08-18 21:25:00,
2013-08-18 16:30:00,79.3,54.0,30.12,SSW,207,2.0,6.0,42,-99.99,,,0.00,1-wire,2013-08-18 21:30:00,
2013-08-18 16:36:00,79.5,53.2,30.12,SSW,203,3.0,6.0,40,-99.99,,,0.00,1-wire,2013-08-18 21:36:00,
2013-08-18 16:42:00,79.8,53.3,30.12,SSW,203,1.0,3.0,40,-99.99,,,0.00,1-wire,2013-08-18 21:42:00,
2013-08-18 16:48:00,80.0,54.2,30.12,SSW,203,0.0,3.0,41,-99.99,,,0.00,1-wire,2013-08-18 21:48:00,
2013-08-18 16:54:00,79.6,53.9,30.12,SSW,213,4.0,9.0,41,-99.99,,,0.00,1-wire,2013-08-18 21:54:00,
2013-08-18 16:59:00,79.7,54.1,30.12,SSW,213,0.0,0.0,41,-99.99,,,0.00,1-wire,2013-08-18 21:59:00,
2013-08-18 17:04:00,79.8,54.9,30.12,SSW,213,2.0,6.0,42,-99.99,,,0.00,1-wire,2013-08-18 22:04:00,
2013-08-18 17:09:00,80.3,56.3,30.12,SW,221,1.0,3.0,44,-99.99,,,0.00,1-wire,2013-08-18 22:09:00,
2013-08-18 17:14:00,79.7,55.0,30.12,SW,221,1.0,3.0,43,-99.99,,,0.00,1-wire,2013-08-18 22:14:00,
2013-08-18 17:20:00,80.5,56.1,30.12,SW,221,0.0,3.0,43,-99.99,,,0.00,1-wire,2013-08-18 22:20:00,
2013-08-18 17:26:00,80.2,55.7,30.12,SW,215,2.0,6.0,43,-99.99,,,0.00,1-wire,2013-08-18 22:26:00,
2013-08-18 17:31:00,79.8,55.6,30.13,SW,215,1.0,3.0,43,-99.99,,,0.00,1-wire,2013-08-18 22:31:00,
2013-08-18 17:36:00,79.7,54.2,30.12,SSW,200,0.0,3.0,42,-99.99,,,0.00,1-wire,2013-08-18 22:36:00,
2013-08-18 17:41:00,79.6,53.2,30.12,SSW,200,2.0,6.0,40,-99.99,,,0.00,1-wire,2013-08-18 22:41:00,
2013-08-18 17:47:00,79.7,53.2,30.12,SSW,200,1.0,3.0,40,-99.99,,,0.00,1-wire,2013-08-18 22:47:00,
2013-08-18 17:53:00,79.5,54.2,30.12,SSW,202,2.0,6.0,42,-99.99,,,0.00,1-wire,2013-08-18 22:53:00,
2013-08-18 17:58:00,79.6,53.8,30.13,SSW,202,3.0,6.0,41,-99.99,,,0.00,1-wire,2013-08-18 22:58:00,
2013-08-18 18:03:00,79.6,54.5,30.12,SSW,202,0.0,0.0,42,-99.99,,,0.00,1-wire,2013-08-18 23:03:00,
2013-08-18 18:08:00,79.4,54.2,30.12,SSW,211,0.0,3.0,42,-99.99,,,0.00,1-wire,2013-08-18 23:08:00,
2013-08-18 18:13:00,79.3,54.6,30.12,SSW,211,0.0,0.0,43,-99.99,,,0.00,1-wire,2013-08-18 23:13:00,
2013-08-18 18:19:00,77.9,58.0,30.12,SSW,211,0.0,0.0,51,-99.99,,,0.00,1-wire,2013-08-18 23:19:00,
2013-08-18 18:24:00,76.9,57.7,30.12,WSW,258,2.0,5.0,52,-99.99,,,0.00,1-wire,2013-08-18 23:24:00,
2013-08-18 18:29:00,76.1,57.3,30.11,WSW,258,0.0,0.0,52,-99.99,,,0.00,1-wire,2013-08-18 23:29:00,
2013-08-18 18:34:00,75.8,58.9,30.11,WSW,258,0.0,0.0,56,-99.99,,,0.00,1-wire,2013-08-18 23:34:00,
2013-08-18 18:39:00,74.8,59.0,30.11,WSW,257,0.0,0.0,58,-99.99,,,0.00,1-wire,2013-08-18 23:39:00,
2013-08-18 18:44:00,74.2,58.0,30.11,WSW,257,0.0,3.0,57,-99.99,,,0.00,1-wire,2013-08-18 23:44:00,
2013-08-18 18:49:00,73.7,58.4,30.11,WSW,257,2.0,6.0,59,-99.99,,,0.00,1-wire,2013-08-18 23:49:00,
2013-08-18 18:54:00,73.6,58.0,30.11,WSW,248,0.0,3.0,58,-99.99,,,0.00,1-wire,2013-08-18 23:54:00,
2013-08-18 18:59:00,73.8,58.7,30.11,WSW,248,0.0,3.0,59,-99.99,,,0.00,1-wire,2013-08-18 23:59:00,
2013-08-18 19:04:00,73.6,58.8,30.11,WSW,248,0.0,0.0,60,-99.99,,,0.00,1-wire,2013-08-19 00:04:00,
2013-08-18 19:09:00,73.3,58.7,30.11,SSW,201,0.0,0.0,60,-99.99,,,0.00,1-wire,2013-08-19 00:09:00,
2013-08-18 19:14:00,73.3,59.4,30.11,SSW,201,0.0,0.0,62,-99.99,,,0.00,1-wire,2013-08-19 00:14:00,
2013-08-18 19:19:00,72.6,59.3,30.11,SSW,201,0.0,0.0,63,-99.99,,,0.00,1-wire,2013-08-19 00:19:00,
2013-08-18 19:24:00,72.4,59.2,30.11,SSW,201,0.0,0.0,63,-99.99,,,0.00,1-wire,2013-08-19 00:24:00,
2013-08-18 19:29:00,72.1,60.0,30.11,SSW,201,0.0,0.0,66,-99.99,,,0.00,1-wire,2013-08-19 00:29:00,
2013-08-18 19:34:00,71.8,59.4,30.11,SSW,201,0.0,0.0,65,-99.99,,,0.00,1-wire,2013-08-19 00:34:00,
2013-08-18 19:39:00,71.5,59.4,30.11,SSW,199,0.0,0.0,66,-99.99,,,0.00,1-wire,2013-08-19 00:39:00,
2013-08-18 19:44:00,71.4,59.5,30.11,SSW,199,0.0,0.0,66,-99.99,,,0.00,1-wire,2013-08-19 00:44:00,
2013-08-18 19:49:00,71.1,59.8,30.11,SSW,199,0.0,0.0,68,-99.99,,,0.00,1-wire,2013-08-19 00:49:00,
2013-08-18 19:54:00,70.7,59.6,30.11,SSW,199,0.0,0.0,68,-99.99,,,0.00,1-wire,2013-08-19 00:54:00,
2013-08-18 19:59:00,70.0,59.7,30.11,SSW,199,0.0,0.0,70,-99.99,,,0.00,1-wire,2013-08-19 00:59:00,
2013-08-18 20:04:00,70.0,58.6,30.12,SSW,199,0.0,3.0,67,-99.99,,,0.00,1-wire,2013-08-19 01:04:00,
2013-08-18 20:09:00,69.9,58.4,30.12,SSW,198,0.0,0.0,67,-99.99,,,0.00,1-wire,2013-08-19 01:09:00,
2013-08-18 20:14:00,69.7,58.4,30.12,SSW,198,0.0,0.0,67,-99.99,,,0.00,1-wire,2013-08-19 01:14:00,
2013-08-18 20:19:00,69.5,58.2,30.12,SSW,198,0.0,0.0,67,-99.99,,,0.00,1-wire,2013-08-19 01:19:00,
2013-08-18 20:24:00,69.5,58.1,30.12,South,184,0.0,0.0,67,-99.99,,,0.00,1-wire,2013-08-19 01:24:00,
2013-08-18 20:29:00,69.4,58.1,30.12,South,184,0.0,3.0,67,-99.99,,,0.00,1-wire,2013-08-19 01:29:00,
2013-08-18 20:34:00,69.2,58.0,30.11,South,184,0.0,0.0,68,-99.99,,,0.00,1-wire,2013-08-19 01:34:00,
2013-08-18 20:40:00,69.1,57.5,30.11,SSW,192,0.0,3.0,66,-99.99,,,0.00,1-wire,2013-08-19 01:40:00,
2013-08-18 20:46:00,69.5,57.3,30.11,SSW,192,0.0,3.0,65,-99.99,,,0.00,1-wire,2013-08-19 01:46:00,
2013-08-18 20:52:00,69.7,57.4,30.11,South,189,0.0,3.0,65,-99.99,,,0.00,1-wire,2013-08-19 01:52:00,
2013-08-18 20:58:00,69.8,57.7,30.11,South,189,0.0,0.0,65,-99.99,,,0.00,1-wire,2013-08-19 01:58:00,
2013-08-18 21:04:00,69.9,57.6,30.11,South,189,0.0,0.0,65,-99.99,,,0.00,1-wire,2013-08-19 02:04:00,
2013-08-18 21:10:00,70.0,57.5,30.11,NNW,346,0.0,0.0,65,-99.99,,,0.00,1-wire,2013-08-19 02:10:00,
2013-08-18 21:16:00,69.7,57.5,30.12,NNW,346,0.0,0.0,65,-99.99,,,0.00,1-wire,2013-08-19 02:16:00,
2013-08-18 21:22:00,69.6,57.5,30.12,SSW,202,0.0,0.0,66,-99.99,,,0.00,1-wire,2013-08-19 02:22:00,
2013-08-18 21:28:00,69.7,57.6,30.12,SSW,202,0.0,0.0,66,-99.99,,,0.00,1-wire,2013-08-19 02:28:00,
2013-08-18 21:34:00,69.8,58.2,30.12,SSW,202,0.0,0.0,67,-99.99,,,0.00,1-wire,2013-08-19 02:34:00,
2013-08-18 21:40:00,69.4,57.7,30.12,SSW,210,0.0,0.0,66,-99.99,,,0.00,1-wire,2013-08-19 02:40:00,
2013-08-18 21:45:00,69.2,57.8,30.11,SSW,210,0.0,0.0,67,-99.99,,,0.00,1-wire,2013-08-19 02:45:00,
2013-08-18 21:51:00,68.8,57.6,30.12,SSW,207,0.0,0.0,68,-99.99,,,0.00,1-wire,2013-08-19 02:51:00,
2013-08-18 21:57:00,68.8,57.7,30.12,SSW,207,0.0,0.0,68,-99.99,,,0.00,1-wire,2013-08-19 02:57:00,
2013-08-18 22:03:00,68.6,58.4,30.12,SSW,207,0.0,0.0,70,-99.99,,,0.00,1-wire,2013-08-19 03:03:00,
2013-08-18 22:09:00,68.3,58.0,30.12,SW,214,0.0,0.0,70,-99.99,,,0.00,1-wire,2013-08-19 03:09:00,
2013-08-18 22:15:00,68.1,58.3,30.12,SW,214,0.0,0.0,71,-99.99,,,0.00,1-wire,2013-08-19 03:15:00,
2013-08-18 22:21:00,67.9,57.8,30.12,SW,215,0.0,0.0,70,-99.99,,,0.00,1-wire,2013-08-19 03:21:00,
2013-08-18 22:27:00,67.6,58.3,30.12,SW,215,0.0,0.0,72,-99.99,,,0.00,1-wire,2013-08-19 03:27:00,
2013-08-18 22:33:00,67.5,57.8,30.12,SW,215,0.0,0.0,71,-99.99,,,0.00,1-wire,2013-08-19 03:33:00,
2013-08-18 22:39:00,67.1,57.3,30.12,SW,218,0.0,0.0,71,-99.99,,,0.00,1-wire,2013-08-19 03:39:00,
2013-08-18 22:45:00,67.0,57.1,30.12,SW,218,0.0,0.0,71,-99.99,,,0.00,1-wire,2013-08-19 03:45:00,
2013-08-18 22:51:00,66.8,56.9,30.12,SW,220,0.0,0.0,71,-99.99,,,0.00,1-wire,2013-08-19 03:51:00,
2013-08-18 22:57:00,66.9,56.9,30.12,SW,220,0.0,0.0,70,-99.99,,,0.00,1-wire,2013-08-19 03:57:00,
2013-08-18 23:01:00,66.9,56.8,30.12,SW,220,0.0,0.0,70,-99.99,,,0.00,1-wire,2013-08-19 04:01:00,
2013-08-18 23:04:00,67.0,56.9,30.12,SW,220,0.0,0.0,70,-99.99,,,0.00,1-wire,2013-08-19 04:04:00,
2013-08-18 23:06:00,67.0,56.9,30.12,SW,217,0.0,0.0,70,-99.99,,,0.00,1-wire,2013-08-19 04:06:00,
2013-08-18 23:09:00,67.0,56.8,30.12,SW,217,0.0,0.0,70,-99.99,,,0.00,1-wire,2013-08-19 04:09:00,
2013-08-18 23:14:00,67.0,56.9,30.12,SW,217,0.0,0.0,70,-99.99,,,0.00,1-wire,2013-08-19 04:14:00,
2013-08-18 23:18:00,67.0,56.9,30.12,SW,217,0.0,0.0,70,-99.99,,,0.00,1-wire,2013-08-19 04:18:00,
2013-08-18 23:23:00,67.0,56.9,30.12,West,260,0.0,0.0,70,-99.99,,,0.00,1-wire,2013-08-19 04:23:00,
2013-08-18 23:28:00,67.0,56.7,30.12,West,260,0.0,0.0,70,-99.99,,,0.00,1-wire,2013-08-19 04:28:00,
2013-08-18 23:33:00,67.0,57.0,30.12,West,260,0.0,0.0,70,-99.99,,,0.00,1-wire,2013-08-19 04:33:00,
2013-08-18 23:38:00,66.8,56.8,30.12,West,263,0.0,0.0,70,-99.99,,,0.00,1-wire,2013-08-19 04:38:00,
2013-08-18 23:43:00,66.5,56.7,30.12,West,263,0.0,0.0,71,-99.99,,,0.00,1-wire,2013-08-19 04:43:00,
2013-08-18 23:48:00,66.5,56.6,30.12,West,263,0.0,0.0,70,-99.99,,,0.00,1-wire,2013-08-19 04:48:00,
2013-08-18 23:53:00,66.5,56.6,30.12,West,263,0.0,0.0,70,-99.99,,,0.00,1-wire,2013-08-19 04:53:00,
2013-08-18 23:58:00,66.4,56.5,30.12,West,263,0.0,0.0,70,-99.99,,,0.00,1-wire,2013-08-19 04:58:00,